| time (UTC) | temp C | wind direction | speed KPH | gust KPH | rain 1hr cm | rain 24hr cm | rain mn cm | humidity % | barometer mb |
| 20260507123040 | 13 | 65 | 1.6 | 3.2 | 0.00 | 0.00 | 0.00 | 80 | 1016.1 |
| 20260507121542 | 13 | 0 | 0.0 | 3.2 | 0.00 | 0.00 | 0.00 | 80 | 1016.1 |
| 20260507120038 | 13 | 75 | 0.0 | 1.6 | 0.00 | 0.00 | 0.00 | 82 | 1016.3 |
| 20260507114547 | 13 | 0 | 0.0 | 1.6 | 0.00 | 0.00 | 0.00 | 83 | 1016.3 |
| 20260507113038 | 12 | 0 | 0.0 | 1.6 | 0.00 | 0.00 | 0.00 | 86 | 1016.2 |
| 20260507111536 | 12 | 0 | 0.0 | 0.0 | 0.00 | 0.00 | 0.00 | 85 | 1016.5 |
| 20260507110042 | 12 | 0 | 0.0 | 1.6 | 0.00 | 0.00 | 0.00 | 84 | 1016.5 |
| 20260507104538 | 12 | 0 | 0.0 | 1.6 | 0.00 | 0.00 | 0.00 | 84 | 1016.6 |
| 20260507103043 | 12 | 0 | 0.0 | 1.6 | 0.00 | 0.00 | 0.00 | 85 | 1016.7 |
| 20260507101538 | 12 | 0 | 0.0 | 1.6 | 0.00 | 0.00 | 0.00 | 86 | 1016.8 |
| 20260507100037 | 12 | 0 | 0.0 | 1.6 | 0.00 | 0.00 | 0.00 | 86 | 1017.0 |
| 20260507094552 | 12 | 0 | 0.0 | 1.6 | 0.00 | 0.00 | 0.00 | 86 | 1017.0 |
| 20260507093038 | 12 | 0 | 0.0 | 0.0 | 0.00 | 0.00 | 0.00 | 85 | 1017.1 |
| 20260507091537 | 12 | 0 | 0.0 | 0.0 | 0.00 | 0.00 | 0.00 | 84 | 1017.2 |
| 20260507090035 | 12 | 0 | 0.0 | 0.0 | 0.00 | 0.00 | 0.00 | 84 | 1017.4 |
| 20260507084539 | 12 | 0 | 0.0 | 1.6 | 0.00 | 0.00 | 0.00 | 83 | 1017.6 |
| 20260507083032 | 13 | 291 | 0.0 | 1.6 | 0.00 | 0.00 | 0.00 | 82 | 1017.5 |
| 20260507081540 | 13 | 25 | 0.0 | 1.6 | 0.00 | 0.00 | 0.00 | 83 | 1017.6 |
| 20260507080039 | 13 | 0 | 0.0 | 1.6 | 0.00 | 0.00 | 0.00 | 81 | 1017.7 |
| 20260507074537 | 13 | 23 | 0.0 | 3.2 | 0.00 | 0.00 | 0.00 | 80 | 1017.8 |
| 20260507073036 | 13 | 0 | 0.0 | 1.6 | 0.00 | 0.00 | 0.00 | 80 | 1017.8 |
| 20260507071540 | 13 | 59 | 0.0 | 3.2 | 0.00 | 0.00 | 0.00 | 80 | 1018.1 |
| 20260507070048 | 13 | 0 | 0.0 | 1.6 | 0.00 | 0.00 | 0.00 | 81 | 1018.1 |
| 20260507064546 | 13 | 0 | 0.0 | 3.2 | 0.00 | 0.00 | 0.00 | 80 | 1018.0 |
| 20260507063037 | 14 | 291 | 1.6 | 8.0 | 0.00 | 0.00 | 0.00 | 79 | 1018.0 |
| 20260507061538 | 13 | 336 | 0.0 | 3.2 | 0.00 | 0.00 | 0.00 | 81 | 1018.0 |
| 20260507060035 | 13 | 0 | 0.0 | 1.6 | 0.00 | 0.00 | 0.00 | 79 | 1018.1 |
| 20260507054535 | 14 | 0 | 0.0 | 0.0 | 0.00 | 0.00 | 0.00 | 78 | 1018.0 |
| 20260507053037 | 14 | 0 | 0.0 | 1.6 | 0.00 | 0.00 | 0.00 | 78 | 1017.9 |
| 20260507051535 | 14 | 0 | 0.0 | 1.6 | 0.00 | 0.00 | 0.00 | 77 | 1018.0 |
| 20260507050038 | 15 | 0 | 0.0 | 3.2 | 0.00 | 0.00 | 0.00 | 76 | 1018.1 |
| 20260507044542 | 15 | 0 | 0.0 | 6.4 | 0.00 | 0.00 | 0.00 | 75 | 1017.8 |
| 20260507043038 | 15 | 301 | 0.0 | 4.8 | 0.00 | 0.00 | 0.00 | 75 | 1017.7 |
| 20260507041544 | 15 | 296 | 3.2 | 6.4 | 0.00 | 0.00 | 0.00 | 73 | 1017.5 |
| 20260507040043 | 16 | 320 | 4.8 | 11.3 | 0.00 | 0.00 | 0.00 | 72 | 1017.5 |
| 20260507034542 | 16 | 311 | 4.8 | 9.7 | 0.00 | 0.00 | 0.00 | 71 | 1017.4 |
| 20260507033045 | 16 | 316 | 3.2 | 9.7 | 0.00 | 0.00 | 0.00 | 69 | 1017.3 |
| 20260507031552 | 17 | 311 | 4.8 | 8.0 | 0.00 | 0.00 | 0.00 | 67 | 1017.2 |
| 20260507030042 | 17 | 354 | 4.8 | 9.7 | 0.00 | 0.00 | 0.00 | 65 | 1016.8 |
| 20260507024548 | 17 | 281 | 3.2 | 9.7 | 0.00 | 0.00 | 0.00 | 64 | 1016.8 |
| 20260507023037 | 18 | 299 | 6.4 | 14.5 | 0.00 | 0.00 | 0.00 | 63 | 1016.9 |
| 20260507021550 | 19 | 300 | 4.8 | 9.7 | 0.00 | 0.00 | 0.00 | 60 | 1016.8 |
| 20260507020034 | 20 | 224 | 3.2 | 9.7 | 0.00 | 0.00 | 0.00 | 58 | 1016.8 |
| 20260507014543 | 20 | 304 | 4.8 | 11.3 | 0.00 | 0.00 | 0.00 | 57 | 1016.6 |
| 20260507013040 | 21 | 285 | 6.4 | 12.9 | 0.00 | 0.00 | 0.00 | 54 | 1016.6 |
| 20260507011541 | 21 | 286 | 8.0 | 12.9 | 0.00 | 0.00 | 0.00 | 53 | 1016.4 |
| 20260507010042 | 21 | 292 | 4.8 | 14.5 | 0.00 | 0.00 | 0.00 | 52 | 1016.3 |
| 20260507004539 | 22 | 295 | 11.3 | 17.7 | 0.00 | 0.00 | 0.00 | 51 | 1016.2 |
| 20260507003035 | 22 | 301 | 6.4 | 17.7 | 0.00 | 0.00 | 0.00 | 50 | 1016.2 |
| 20260507001538 | 22 | 300 | 9.7 | 17.7 | 0.00 | 0.00 | 0.00 | 49 | 1016.0 |
| 20260507000037 | 22 | 307 | 6.4 | 16.1 | 0.00 | 0.00 | 0.00 | 48 | 1016.0 |
| 20260506234551 | 22 | 297 | 6.4 | 16.1 | 0.00 | 0.00 | 0.00 | 46 | 1015.9 |
| 20260506233039 | 22 | 11 | 3.2 | 19.3 | 0.00 | 0.00 | 0.00 | 48 | 1015.8 |
| 20260506231535 | 22 | 314 | 6.4 | 16.1 | 0.00 | 0.00 | 0.00 | 46 | 1015.9 |
| 20260506230039 | 22 | 266 | 8.0 | 17.7 | 0.00 | 0.00 | 0.00 | 43 | 1016.1 |
| 20260506224535 | 22 | 263 | 6.4 | 17.7 | 0.00 | 0.00 | 0.00 | 45 | 1016.2 |
| 20260506223035 | 21 | 318 | 8.0 | 14.5 | 0.00 | 0.00 | 0.00 | 45 | 1016.5 |
| 20260506221535 | 21 | 244 | 4.8 | 19.3 | 0.00 | 0.00 | 0.00 | 47 | 1016.5 |
| 20260506220036 | 21 | 319 | 8.0 | 14.5 | 0.00 | 0.00 | 0.00 | 47 | 1016.6 |
| 20260506214540 | 21 | 283 | 6.4 | 12.9 | 0.00 | 0.00 | 0.00 | 49 | 1016.8 |
| 20260506213040 | 20 | 2 | 8.0 | 17.7 | 0.00 | 0.00 | 0.00 | 51 | 1016.8 |
| 20260506211538 | 20 | 284 | 8.0 | 16.1 | 0.00 | 0.00 | 0.00 | 49 | 1017.2 |
| 20260506210036 | 20 | 247 | 9.7 | 19.3 | 0.00 | 0.00 | 0.00 | 50 | 1017.2 |
| 20260506204540 | 20 | 308 | 6.4 | 14.5 | 0.00 | 0.00 | 0.00 | 51 | 1017.2 |
| 20260506203041 | 19 | 253 | 6.4 | 14.5 | 0.00 | 0.00 | 0.00 | 52 | 1017.2 |
| 20260506201539 | 18 | 307 | 8.0 | 16.1 | 0.00 | 0.00 | 0.00 | 53 | 1017.4 |
| 20260506200040 | 18 | 295 | 4.8 | 14.5 | 0.00 | 0.00 | 0.00 | 54 | 1017.7 |
| 20260506194536 | 18 | 25 | 8.0 | 14.5 | 0.00 | 0.00 | 0.00 | 55 | 1017.7 |
| 20260506193036 | 18 | 288 | 8.0 | 14.5 | 0.00 | 0.00 | 0.00 | 56 | 1017.8 |
| 20260506191538 | 17 | 0 | 4.8 | 14.5 | 0.00 | 0.00 | 0.00 | 59 | 1018.1 |
| 20260506190039 | 17 | 303 | 3.2 | 14.5 | 0.00 | 0.00 | 0.00 | 58 | 1018.1 |
| 20260506184545 | 17 | 233 | 4.8 | 11.3 | 0.00 | 0.00 | 0.00 | 59 | 1018.2 |
| 20260506183035 | 17 | 245 | 4.8 | 11.3 | 0.00 | 0.00 | 0.00 | 59 | 1018.5 |
| 20260506181538 | 17 | 302 | 1.6 | 6.4 | 0.00 | 0.00 | 0.00 | 60 | 1018.6 |
| 20260506180038 | 17 | 215 | 1.6 | 11.3 | 0.00 | 0.00 | 0.00 | 60 | 1018.6 |
| 20260506174537 | 16 | 191 | 3.2 | 6.4 | 0.00 | 0.00 | 0.00 | 62 | 1018.4 |
| 20260506173055 | 16 | 182 | 3.2 | 9.7 | 0.00 | 0.00 | 0.00 | 64 | 1018.5 |
| 20260506171535 | 15 | 274 | 1.6 | 6.4 | 0.00 | 0.00 | 0.00 | 65 | 1018.5 |
| 20260506170040 | 15 | 291 | 3.2 | 6.4 | 0.00 | 0.00 | 0.00 | 66 | 1018.5 |
| 20260506164538 | 14 | 135 | 1.6 | 6.4 | 0.00 | 0.00 | 0.00 | 69 | 1018.6 |
| 20260506163041 | 13 | 0 | 0.0 | 6.4 | 0.00 | 0.00 | 0.00 | 71 | 1018.5 |
| 20260506161536 | 13 | 0 | 0.0 | 9.7 | 0.00 | 0.00 | 0.00 | 71 | 1018.3 |
| 20260506160036 | 12 | 264 | 3.2 | 6.4 | 0.00 | 0.00 | 0.00 | 73 | 1018.2 |
| 20260506154548 | 12 | 278 | 1.6 | 6.4 | 0.00 | 0.00 | 0.00 | 76 | 1018.3 |
| 20260506153042 | 12 | 0 | 0.0 | 1.6 | 0.00 | 0.00 | 0.00 | 74 | 1018.2 |
| 20260506151535 | 12 | 0 | 0.0 | 1.6 | 0.00 | 0.00 | 0.00 | 77 | 1018.4 |
| 20260506150036 | 12 | 0 | 0.0 | 0.0 | 0.00 | 0.00 | 0.00 | 79 | 1018.3 |
| 20260506144538 | 10 | 0 | 0.0 | 0.0 | 0.00 | 0.00 | 0.00 | 86 | 1018.4 |
| 20260506143042 | 8 | 0 | 0.0 | 0.0 | 0.00 | 0.00 | 0.00 | 90 | 1018.3 |
| 20260506141535 | 8 | 0 | 0.0 | 0.0 | 0.00 | 0.00 | 0.00 | 90 | 1018.3 |
| 20260506140035 | 8 | 0 | 0.0 | 0.0 | 0.00 | 0.00 | 0.00 | 90 | 1018.2 |
| 20260506134535 | 8 | 0 | 0.0 | 1.6 | 0.00 | 0.15 | 0.00 | 91 | 1018.0 |
| 20260506133035 | 7 | 0 | 0.0 | 0.0 | 0.00 | 0.15 | 0.00 | 91 | 1017.9 |
| 20260506131545 | 8 | 0 | 0.0 | 1.6 | 0.00 | 0.15 | 0.00 | 90 | 1017.7 |
| 20260506130049 | 8 | 0 | 0.0 | 1.6 | 0.00 | 0.15 | 0.00 | 89 | 1017.6 |
| 20260506124537 | 8 | 0 | 0.0 | 1.6 | 0.00 | 0.66 | 0.00 | 89 | 1017.6 |